CW9832 Weather Reports


Display with metric or nautical units.
time (UTC)temp
F
wind
direction
speed
MPH
gust
MPH
rain 1hr
in
rain 24hr
in
rain mn
in
humidity
%
barometer
mb
20260505180344 82 155 2.0 14.0 0.00 0.00 0.00 43 1015.3
20260505175409 81 188 2.0 11.0 0.00 0.00 0.00 46 1015.4
20260505174342 80 195 1.0 10.0 0.00 0.00 0.00 46 1015.5
20260505173338 80 217 2.0 7.0 0.00 0.00 0.00 48 1015.5
20260505172321 80 208 4.0 15.0 0.00 0.00 0.00 44 1015.5
20260505171308 80 198 0.0 8.0 0.00 0.00 0.00 50 1015.5
20260505170330 79 203 1.0 15.0 0.00 0.00 0.00 50 1015.5
20260505165354 80 182 2.0 15.0 0.00 0.00 0.00 48 1015.7
20260505164328 80 133 2.0 12.0 0.00 0.00 0.00 51 1015.7
20260505152832 78 179 0.0 13.0 0.00 0.00 0.00 58 1016.5
20260505151759 77 173 2.0 13.0 0.00 0.00 0.00 59 1016.6
20260505150805 76 170 1.0 7.0 0.00 0.00 0.00 61 1016.5
20260505124936 64 196 0.0 4.0 0.00 0.00 0.00 81 1016.3
20260505123941 63 224 0.0 2.0 0.00 0.00 0.00 84 1016.2
20260505122944 61 206 0.0 0.0 0.00 0.00 0.00 86 1016.2
20260505121922 59 206 0.0 0.0 0.00 0.00 0.00 90 1016.3
20260505120928 58 206 0.0 0.0 0.00 0.00 0.00 91 1016.2
20260505115930 56 206 0.0 0.0 0.00 0.00 0.00 91 1016.0
20260505114859 55 206 0.0 0.0 0.00 0.00 0.00 91 1015.8
20260505112656 53 206 0.0 0.0 0.00 0.00 0.00 90 1015.8
20260505111717 53 206 0.0 0.0 0.00 0.00 0.00 90 1015.9
20260505101244 53 206 0.0 0.0 0.00 0.00 0.00 89 1015.2
20260505095206 53 206 0.0 0.0 0.00 0.00 0.00 88 1015.2
20260505094154 53 206 0.0 0.0 0.00 0.00 0.00 87 1015.3
20260505093212 53 206 0.0 0.0 0.00 0.00 0.00 87 1015.3
20260505092158 54 206 0.0 0.0 0.00 0.00 0.00 87 1015.2
20260505091202 54 206 0.0 0.0 0.00 0.00 0.00 86 1015.3
20260505084953 55 206 0.0 0.0 0.00 0.00 0.00 85 1015.1
20260505083925 55 206 0.0 0.0 0.00 0.00 0.00 85 1015.0
20260505082851 56 206 0.0 0.0 0.00 0.00 0.00 85 1014.9
20260505075626 56 206 0.0 0.0 0.00 0.00 0.00 84 1014.8
20260505074558 56 208 0.0 0.0 0.00 0.00 0.00 84 1014.8
20260505073609 56 208 0.0 0.0 0.00 0.00 0.00 84 1014.7
20260505072547 56 193 0.0 0.0 0.00 0.00 0.00 84 1014.6
20260505071517 57 193 0.0 0.0 0.00 0.00 0.00 83 1014.7
20260505070503 57 193 0.0 0.0 0.00 0.00 0.00 83 1014.7
20260505065434 57 193 0.0 0.0 0.00 0.00 0.00 82 1014.7
20260505064452 57 193 0.0 0.0 0.00 0.00 0.00 82 1014.8
20260505063443 57 193 0.0 0.0 0.00 0.00 0.00 82 1014.9
20260505062411 58 193 0.0 0.0 0.00 0.00 0.00 81 1015.0
20260505061425 58 193 0.0 0.0 0.00 0.00 0.00 80 1015.1
20260505060402 58 193 0.0 0.0 0.00 0.00 0.00 79 1015.1
20260505055352 58 194 0.0 0.0 0.00 0.00 0.00 78 1015.0
20260505054412 58 194 0.0 0.0 0.00 0.00 0.00 77 1015.1
20260505053428 59 193 0.0 0.0 0.00 0.00 0.00 76 1015.2
20260505052353 59 194 0.0 0.0 0.00 0.00 0.00 76 1015.2
20260505050150 59 192 0.0 2.0 0.00 0.00 0.00 75 1015.3
20260505041018 61 194 0.0 6.0 0.00 0.00 0.00 72 1015.5
20260505040009 61 223 0.0 0.0 0.00 0.00 0.00 71 1015.4
20260505034947 62 188 0.0 0.0 0.00 0.00 0.00 71 1015.5
20260505033939 62 195 0.0 2.0 0.00 0.00 0.00 71 1015.4
20260505031758 62 183 0.0 0.0 0.00 0.00 0.00 70 1015.4
20260505025641 62 200 0.0 5.0 0.00 0.00 0.00 70 1015.6
20260505024635 62 178 0.0 5.0 0.00 0.00 0.00 69 1015.4
20260505023646 63 177 0.0 0.0 0.00 0.00 0.00 69 1015.4
20260505022624 63 203 0.0 3.0 0.00 0.00 0.00 68 1015.3
20260505021610 63 184 0.0 9.0 0.00 0.00 0.00 67 1015.1
20260505020629 63 185 0.0 1.0 0.00 0.00 0.00 66 1015.1
20260505015558 64 190 0.0 0.0 0.00 0.00 0.00 65 1014.9
20260505013501 64 183 0.0 0.0 0.00 0.00 0.00 61 1014.6
20260505012516 65 183 0.0 0.0 0.00 0.00 0.00 59 1014.4
20260505011523 65 183 0.0 0.0 0.00 0.00 0.00 59 1014.4
20260505005441 66 183 0.0 0.0 0.00 0.00 0.00 56 1014.1
20260505003321 67 183 0.0 0.0 0.00 0.00 0.00 55 1013.9
20260505002318 68 183 0.0 0.0 0.00 0.00 0.00 55 1013.9
20260505001258 68 183 0.0 0.0 0.00 0.00 0.00 56 1013.9
20260505000313 69 183 0.0 0.0 0.00 0.00 0.00 56 1013.8
20260504235239 70 183 0.0 0.0 0.00 0.00 0.00 55 1013.8
20260504234241 71 183 0.0 0.0 0.00 0.00 0.00 54 1013.8
20260504233258 72 183 0.0 0.0 0.00 0.00 0.00 51 1013.7
20260504232225 72 183 0.0 0.0 0.00 0.00 0.00 50 1013.7
20260504231247 73 183 0.0 0.0 0.00 0.00 0.00 48 1013.6
20260504225041 75 183 0.0 0.0 0.00 0.00 0.00 48 1013.7
20260504224056 75 183 0.0 0.0 0.00 0.00 0.00 43 1013.8
20260504223109 76 183 0.0 0.0 0.00 0.00 0.00 43 1013.9
20260504221002 76 188 1.0 7.0 0.00 0.00 0.00 40 1013.9
20260504215931 76 213 0.0 5.0 0.00 0.00 0.00 39 1014.0
20260504214911 76 230 1.0 11.0 0.00 0.00 0.00 41 1013.9
20260504213842 77 205 2.0 11.0 0.00 0.00 0.00 42 1014.0
20260504211716 79 192 0.0 11.0 0.00 0.00 0.00 36 1013.8
20260504210651 79 190 1.0 11.0 0.00 0.00 0.00 38 1013.8
20260504204607 80 200 2.0 9.0 0.00 0.00 0.00 34 1014.0
20260504203616 80 182 2.0 14.0 0.00 0.00 0.00 36 1014.1
20260504202621 80 192 3.0 14.0 0.00 0.00 0.00 36 1014.1
20260504201633 81 200 1.0 8.0 0.00 0.00 0.00 35 1014.0
20260504200654 81 170 2.0 13.0 0.00 0.00 0.00 32 1014.2
20260504195633 80 217 2.0 8.0 0.00 0.00 0.00 34 1014.3
20260504194603 80 226 0.0 3.0 0.00 0.00 0.00 35 1014.4
20260504193610 80 150 1.0 10.0 0.00 0.00 0.00 33 1014.4
20260504192553 80 190 2.0 7.0 0.00 0.00 0.00 36 1014.7
20260504191551 80 190 0.0 3.0 0.00 0.00 0.00 33 1014.8
20260504190524 80 187 1.0 8.0 0.00 0.00 0.00 33 1014.8
20260504185546 80 191 2.0 8.0 0.00 0.00 0.00 36 1015.0
20260504184539 79 277 0.0 0.0 0.00 0.00 0.00 35 1015.2
20260504183529 79 213 2.0 8.0 0.00 0.00 0.00 36 1015.3